Time,TemperatureF,DewpointF,PressureIn,WindDirection,WindDirectionDegrees,WindSpeedMPH,WindSpeedGustMPH,Humidity,HourlyPrecipIn,Conditions,Clouds,dailyrainin,SoftwareType,DateUTC
2013-04-14 00:04:00,56.3,47.8,21.51,WSW,245,0.0,3.0,73,0.00,,---,0.00,VWS V13.01,2013-04-14 07:04:00,
2013-04-14 00:09:00,56.3,47.8,21.51,WSW,245,0.0,3.0,73,0.00,,---,0.00,VWS V13.01,2013-04-14 07:09:00,
2013-04-14 00:14:00,56.3,47.8,21.51,WSW,245,0.0,3.0,73,0.00,,---,0.00,VWS V13.01,2013-04-14 07:14:00,
2013-04-14 00:19:00,56.3,47.8,21.51,WSW,245,0.0,3.0,73,0.00,,---,0.00,VWS V13.01,2013-04-14 07:19:00,
2013-04-14 00:24:00,56.3,47.4,21.51,WSW,245,0.0,3.0,72,0.00,,---,0.00,VWS V13.01,2013-04-14 07:24:00,
2013-04-14 00:29:00,56.2,47.3,21.51,WSW,245,0.0,3.0,72,0.00,,---,0.00,VWS V13.01,2013-04-14 07:29:00,
2013-04-14 00:34:00,56.2,47.7,21.51,WSW,245,0.0,0.0,73,0.00,,---,0.00,VWS V13.01,2013-04-14 07:34:00,
2013-04-14 00:39:00,56.1,47.6,21.51,WSW,245,0.0,1.0,73,0.00,,---,0.00,VWS V13.01,2013-04-14 07:39:00,
2013-04-14 00:45:00,55.8,47.3,21.52,WSW,245,0.0,1.0,73,0.00,,---,0.00,VWS V13.01,2013-04-14 07:45:00,
2013-04-14 00:50:00,55.6,47.1,21.52,WSW,245,0.0,1.0,73,0.00,,---,0.00,VWS V13.01,2013-04-14 07:50:00,
2013-04-14 00:55:00,55.5,47.4,21.52,WSW,245,0.0,1.0,74,0.00,,---,0.00,VWS V13.01,2013-04-14 07:55:00,
2013-04-14 01:00:00,55.4,47.3,21.52,WSW,245,0.0,0.0,74,0.00,,---,0.00,VWS V13.01,2013-04-14 08:00:00,
2013-04-14 01:05:00,55.4,47.3,21.52,WSW,245,0.0,1.0,74,0.00,,---,0.00,VWS V13.01,2013-04-14 08:05:00,
2013-04-14 01:10:00,55.3,47.2,21.52,WSW,245,0.0,1.0,74,0.00,,---,0.00,VWS V13.01,2013-04-14 08:10:00,
2013-04-14 01:15:00,54.8,47.0,21.52,WSW,245,0.0,1.0,75,0.00,,---,0.00,VWS V13.01,2013-04-14 08:15:00,
2013-04-14 01:21:00,54.3,46.6,21.52,WSW,245,0.0,1.0,75,0.00,,---,0.00,VWS V13.01,2013-04-14 08:21:00,
2013-04-14 01:26:00,53.9,46.2,21.53,WSW,245,0.0,3.0,75,0.00,,---,0.00,VWS V13.01,2013-04-14 08:26:00,
2013-04-14 01:31:00,53.6,46.2,21.53,WSW,246,1.0,1.0,76,0.00,,---,0.00,VWS V13.01,2013-04-14 08:31:00,
2013-04-14 01:37:00,53.4,46.0,21.53,WSW,246,0.0,1.0,76,0.00,,---,0.00,VWS V13.01,2013-04-14 08:37:00,
2013-04-14 01:42:00,53.2,45.8,21.53,WSW,246,2.0,2.0,76,0.00,,---,0.00,VWS V13.01,2013-04-14 08:42:00,
2013-04-14 01:47:00,53.1,45.8,21.53,WSW,246,0.0,4.0,76,0.00,,---,0.00,VWS V13.01,2013-04-14 08:47:00,
2013-04-14 01:52:00,52.9,45.9,21.53,WSW,246,0.0,4.0,77,0.00,,---,0.00,VWS V13.01,2013-04-14 08:52:00,
2013-04-14 01:57:00,52.8,45.8,21.53,WSW,246,1.0,4.0,77,0.00,,---,0.00,VWS V13.01,2013-04-14 08:57:00,
2013-04-14 02:02:00,52.6,45.6,21.53,WSW,246,0.0,1.0,77,0.00,,---,0.00,VWS V13.01,2013-04-14 09:02:00,
2013-04-14 02:08:00,52.3,45.7,21.53,WSW,246,0.0,2.0,78,0.00,,---,0.00,VWS V13.01,2013-04-14 09:08:00,
2013-04-14 02:13:00,52.3,45.7,21.53,WSW,246,1.0,2.0,78,0.00,,---,0.00,VWS V13.01,2013-04-14 09:13:00,
2013-04-14 02:18:00,52.3,45.7,21.53,WSW,246,1.0,3.0,78,0.00,,---,0.00,VWS V13.01,2013-04-14 09:18:00,
2013-04-14 02:23:00,52.3,45.7,21.53,WSW,246,0.0,3.0,78,0.00,,---,0.00,VWS V13.01,2013-04-14 09:23:00,
2013-04-14 02:28:00,52.3,45.7,21.53,WSW,246,0.0,3.0,78,0.00,,---,0.00,VWS V13.01,2013-04-14 09:28:00,
2013-04-14 02:33:00,52.2,45.9,21.53,WSW,246,1.0,2.0,79,0.00,,---,0.00,VWS V13.01,2013-04-14 09:33:00,
2013-04-14 02:38:00,52.1,45.5,21.53,WSW,247,1.0,3.0,78,0.00,,---,0.00,VWS V13.01,2013-04-14 09:38:00,
2013-04-14 02:43:00,51.9,45.3,21.53,WSW,247,2.0,3.0,78,0.00,,---,0.00,VWS V13.01,2013-04-14 09:43:00,
2013-04-14 02:48:00,51.7,45.4,21.54,WSW,246,0.0,3.0,79,0.00,,---,0.00,VWS V13.01,2013-04-14 09:48:00,
2013-04-14 02:54:00,51.6,45.3,21.53,WSW,246,0.0,3.0,79,0.00,,---,0.00,VWS V13.01,2013-04-14 09:54:00,
2013-04-14 02:59:00,51.5,45.2,21.53,WSW,246,0.0,3.0,79,0.00,,---,0.00,VWS V13.01,2013-04-14 09:59:00,
2013-04-14 03:04:00,51.2,44.9,21.54,WSW,246,1.0,1.0,79,0.00,,---,0.00,VWS V13.01,2013-04-14 10:04:00,
2013-04-14 03:09:00,51.1,45.2,21.54,WSW,246,0.0,1.0,80,0.00,,---,0.00,VWS V13.01,2013-04-14 10:09:00,
2013-04-14 03:14:00,50.9,45.0,21.54,WSW,246,0.0,1.0,80,0.00,,---,0.00,VWS V13.01,2013-04-14 10:14:00,
2013-04-14 03:19:00,50.8,44.9,21.54,WSW,246,0.0,2.0,80,0.00,,---,0.00,VWS V13.01,2013-04-14 10:19:00,
2013-04-14 03:24:00,50.7,44.8,21.55,WSW,246,0.0,2.0,80,0.00,,---,0.00,VWS V13.01,2013-04-14 10:24:00,
2013-04-14 03:29:00,50.5,44.9,21.54,WSW,247,2.0,2.0,81,0.00,,---,0.00,VWS V13.01,2013-04-14 10:29:00,
2013-04-14 03:34:00,50.7,44.8,21.55,WSW,246,0.0,3.0,80,0.00,,---,0.00,VWS V13.01,2013-04-14 10:34:00,
2013-04-14 03:39:00,50.5,44.6,21.55,WSW,246,2.0,3.0,80,0.00,,---,0.00,VWS V13.01,2013-04-14 10:39:00,
2013-04-14 03:44:00,50.6,44.7,21.55,WSW,246,2.0,4.0,80,0.00,,---,0.00,VWS V13.01,2013-04-14 10:44:00,
2013-04-14 03:50:00,50.5,44.9,21.55,WSW,246,0.0,4.0,81,0.00,,---,0.00,VWS V13.01,2013-04-14 10:50:00,
2013-04-14 03:55:00,50.5,44.6,21.55,WSW,246,2.0,4.0,80,0.00,,---,0.00,VWS V13.01,2013-04-14 10:55:00,
2013-04-14 04:00:00,50.3,44.7,21.55,WSW,247,0.0,4.0,81,0.00,,---,0.00,VWS V13.01,2013-04-14 11:00:00,
2013-04-14 04:05:00,50.1,44.5,21.55,WSW,247,2.0,3.0,81,0.00,,---,0.00,VWS V13.01,2013-04-14 11:05:00,
2013-04-14 04:10:00,50.0,44.4,21.55,WSW,247,0.0,3.0,81,0.00,,---,0.00,VWS V13.01,2013-04-14 11:10:00,
2013-04-14 04:15:00,50.0,44.4,21.56,WSW,247,0.0,3.0,81,0.00,,---,0.00,VWS V13.01,2013-04-14 11:15:00,
2013-04-14 04:20:00,49.9,44.3,21.56,WSW,248,0.0,4.0,81,0.00,,---,0.00,VWS V13.01,2013-04-14 11:20:00,
2013-04-14 04:25:00,49.8,44.2,21.56,WSW,248,0.0,4.0,81,0.00,,---,0.00,VWS V13.01,2013-04-14 11:25:00,
2013-04-14 04:30:00,49.6,44.0,21.56,WSW,248,0.0,0.0,81,0.00,,---,0.00,VWS V13.01,2013-04-14 11:30:00,
2013-04-14 04:35:00,49.3,44.0,21.57,WSW,248,1.0,2.0,82,0.00,,---,0.00,VWS V13.01,2013-04-14 11:35:00,
2013-04-14 04:40:00,49.3,44.0,21.57,WSW,248,0.0,3.0,82,0.00,,---,0.00,VWS V13.01,2013-04-14 11:40:00,
2013-04-14 04:45:00,49.4,43.8,21.56,WSW,248,0.0,3.0,81,0.00,,---,0.00,VWS V13.01,2013-04-14 11:45:00,
2013-04-14 04:50:00,49.4,43.8,21.57,WSW,248,1.0,3.0,81,0.00,,---,0.00,VWS V13.01,2013-04-14 11:50:00,
2013-04-14 04:55:00,49.3,44.0,21.57,WSW,248,0.0,3.0,82,0.00,,---,0.00,VWS V13.01,2013-04-14 11:55:00,
2013-04-14 05:00:00,49.4,43.8,21.57,WSW,248,0.0,0.0,81,0.00,,---,0.00,VWS V13.01,2013-04-14 12:00:00,
2013-04-14 05:05:00,49.5,44.2,21.57,WSW,248,0.0,1.0,82,0.00,,---,0.00,VWS V13.01,2013-04-14 12:05:00,
2013-04-14 05:10:00,49.5,43.9,21.57,WSW,248,0.0,2.0,81,0.00,,---,0.00,VWS V13.01,2013-04-14 12:10:00,
2013-04-14 05:15:00,49.5,43.9,21.57,WSW,248,0.0,2.0,81,0.00,,---,0.00,VWS V13.01,2013-04-14 12:15:00,
2013-04-14 05:20:00,49.5,43.9,21.57,WSW,248,0.0,2.0,81,0.00,,---,0.00,VWS V13.01,2013-04-14 12:20:00,
2013-04-14 05:25:00,49.1,43.8,21.57,WSW,248,0.0,2.0,82,0.00,,---,0.00,VWS V13.01,2013-04-14 12:25:00,
2013-04-14 05:30:00,49.1,43.8,21.57,WSW,248,0.0,0.0,82,0.00,,---,0.00,VWS V13.01,2013-04-14 12:30:00,
2013-04-14 05:35:00,49.1,43.8,21.57,WSW,248,0.0,2.0,82,0.00,,---,0.00,VWS V13.01,2013-04-14 12:35:00,
2013-04-14 05:40:00,49.0,43.8,21.57,WSW,248,0.0,2.0,82,0.00,,---,0.00,VWS V13.01,2013-04-14 12:40:00,
2013-04-14 05:45:00,48.9,43.7,21.57,WSW,248,0.0,2.0,82,0.00,,---,0.00,VWS V13.01,2013-04-14 12:45:00,
2013-04-14 05:50:00,48.8,43.6,21.57,WSW,248,0.0,2.0,82,0.00,,---,0.00,VWS V13.01,2013-04-14 12:50:00,
2013-04-14 05:55:00,48.9,43.7,21.57,WSW,248,0.0,2.0,82,0.00,,---,0.00,VWS V13.01,2013-04-14 12:55:00,
2013-04-14 06:00:00,48.8,43.6,21.57,WSW,248,0.0,0.0,82,0.00,,---,0.00,VWS V13.01,2013-04-14 13:00:00,
2013-04-14 06:05:00,48.8,43.6,21.57,WSW,248,0.0,0.0,82,0.00,,---,0.00,VWS V13.01,2013-04-14 13:05:00,
2013-04-14 06:10:00,48.8,43.2,21.57,WSW,248,0.0,1.0,81,0.00,,---,0.00,VWS V13.01,2013-04-14 13:10:00,
2013-04-14 06:15:00,48.7,43.5,21.57,WSW,248,1.0,1.0,82,0.00,,---,0.00,VWS V13.01,2013-04-14 13:15:00,
2013-04-14 06:21:00,48.6,43.4,21.57,WSW,248,0.0,1.0,82,0.00,,---,0.00,VWS V13.01,2013-04-14 13:21:00,
2013-04-14 06:26:00,48.5,43.3,21.58,WSW,248,0.0,2.0,82,0.00,,---,0.00,VWS V13.01,2013-04-14 13:26:00,
2013-04-14 06:31:00,48.5,43.3,21.58,WSW,248,0.0,0.0,82,0.00,,---,0.00,VWS V13.01,2013-04-14 13:31:00,
2013-04-14 06:36:00,48.6,43.0,21.58,WSW,248,2.0,3.0,81,0.00,,---,0.00,VWS V13.01,2013-04-14 13:36:00,
2013-04-14 06:41:00,48.5,43.0,21.59,WSW,248,1.0,3.0,81,0.00,,---,0.00,VWS V13.01,2013-04-14 13:41:00,
2013-04-14 06:46:00,48.4,42.5,21.59,WSW,248,0.0,3.0,80,0.00,,---,0.00,VWS V13.01,2013-04-14 13:46:00,
2013-04-14 06:51:00,48.4,42.5,21.59,WSW,248,1.0,3.0,80,0.00,,---,0.00,VWS V13.01,2013-04-14 13:51:00,
2013-04-14 06:56:00,48.2,42.3,21.59,WSW,248,0.0,3.0,80,0.00,,---,0.00,VWS V13.01,2013-04-14 13:56:00,
2013-04-14 07:01:00,48.2,42.3,21.60,WSW,248,0.0,2.0,80,0.00,,---,0.00,VWS V13.01,2013-04-14 14:01:00,
2013-04-14 07:07:00,48.1,42.2,21.60,WSW,248,1.0,3.0,80,0.00,,---,0.00,VWS V13.01,2013-04-14 14:07:00,
2013-04-14 07:12:00,48.2,42.3,21.60,WSW,248,0.0,3.0,80,0.00,,---,0.00,VWS V13.01,2013-04-14 14:12:00,
2013-04-14 07:17:00,48.5,42.3,21.60,WSW,248,0.0,3.0,79,0.00,,---,0.00,VWS V13.01,2013-04-14 14:17:00,
2013-04-14 07:22:00,48.7,42.5,21.60,WSW,248,1.0,3.0,79,0.00,,---,0.00,VWS V13.01,2013-04-14 14:22:00,
2013-04-14 07:27:00,48.9,42.3,21.61,WSW,248,0.0,3.0,78,0.00,,---,0.00,VWS V13.01,2013-04-14 14:27:00,
2013-04-14 07:32:00,49.1,42.5,21.61,WSW,248,2.0,3.0,78,0.00,,---,0.00,VWS V13.01,2013-04-14 14:32:00,
2013-04-14 07:37:00,49.4,42.8,21.61,WSW,248,0.0,4.0,78,0.00,,---,0.00,VWS V13.01,2013-04-14 14:37:00,
2013-04-14 07:42:00,49.7,42.8,21.61,WSW,248,2.0,4.0,77,0.00,,---,0.00,VWS V13.01,2013-04-14 14:42:00,
2013-04-14 07:47:00,50.1,43.2,21.61,WSW,248,1.0,4.0,77,0.00,,---,0.00,VWS V13.01,2013-04-14 14:47:00,
2013-04-14 07:52:00,50.5,43.2,21.61,WSW,248,3.0,4.0,76,0.00,,---,0.00,VWS V13.01,2013-04-14 14:52:00,
2013-04-14 07:57:00,51.1,43.5,21.62,NW,314,4.0,6.0,75,0.00,,---,0.00,VWS V13.01,2013-04-14 14:57:00,
2013-04-14 08:02:00,51.7,43.3,21.62,NW,315,2.0,4.0,73,0.00,,---,0.00,VWS V13.01,2013-04-14 15:02:00,
2013-04-14 08:07:00,52.2,42.7,21.62,NW,321,5.0,5.0,70,0.00,,---,0.00,VWS V13.01,2013-04-14 15:07:00,
2013-04-14 08:12:00,52.9,43.0,21.62,NNW,330,3.0,6.0,69,0.00,,---,0.00,VWS V13.01,2013-04-14 15:12:00,
2013-04-14 08:17:00,53.4,42.7,21.63,NNW,330,4.0,8.0,67,0.00,,---,0.00,VWS V13.01,2013-04-14 15:17:00,
2013-04-14 08:22:00,54.0,42.9,21.63,NNW,339,3.0,8.0,66,0.00,,---,0.00,VWS V13.01,2013-04-14 15:22:00,
2013-04-14 08:28:00,54.7,42.0,21.63,NNW,332,10.0,10.0,62,0.00,,---,0.00,VWS V13.01,2013-04-14 15:28:00,
2013-04-14 08:33:00,55.3,42.5,21.63,NNW,342,6.0,8.0,62,0.00,,---,0.00,VWS V13.01,2013-04-14 15:33:00,
2013-04-14 08:38:00,55.8,42.6,21.63,NW,323,5.0,8.0,61,0.00,,---,0.00,VWS V13.01,2013-04-14 15:38:00,
2013-04-14 08:43:00,56.3,42.6,21.64,NNW,337,4.0,10.0,60,0.00,,---,0.00,VWS V13.01,2013-04-14 15:43:00,
2013-04-14 08:48:00,56.7,42.1,21.64,NNW,337,5.0,11.0,58,0.00,,---,0.00,VWS V13.01,2013-04-14 15:48:00,
2013-04-14 08:53:00,57.2,41.7,21.64,NNW,337,11.0,11.0,56,0.00,,---,0.00,VWS V13.01,2013-04-14 15:53:00,
2013-04-14 08:58:00,57.5,40.0,21.65,NNW,327,8.0,14.0,52,0.00,,---,0.00,VWS V13.01,2013-04-14 15:58:00,
2013-04-14 09:03:00,57.8,40.3,21.65,NNW,333,7.0,10.0,52,0.00,,---,0.00,VWS V13.01,2013-04-14 16:03:00,
2013-04-14 09:09:00,58.3,40.3,21.64,NNW,348,10.0,10.0,51,0.00,,---,0.00,VWS V13.01,2013-04-14 16:09:00,
2013-04-14 09:14:00,58.6,39.5,21.64,NNW,347,8.0,13.0,49,0.00,,---,0.00,VWS V13.01,2013-04-14 16:14:00,
2013-04-14 09:19:00,58.8,40.2,21.64,North,351,9.0,13.0,50,0.00,,---,0.00,VWS V13.01,2013-04-14 16:19:00,
2013-04-14 09:24:00,59.1,40.0,21.63,NNW,344,5.0,13.0,49,0.00,,---,0.00,VWS V13.01,2013-04-14 16:24:00,
2013-04-14 09:29:00,59.6,41.0,21.63,NNW,335,3.0,13.0,50,0.00,,---,0.00,VWS V13.01,2013-04-14 16:29:00,
2013-04-14 09:34:00,59.9,40.2,21.64,NNW,342,4.0,8.0,48,0.00,,---,0.00,VWS V13.01,2013-04-14 16:34:00,
2013-04-14 09:39:00,60.1,39.8,21.64,North,353,6.0,10.0,47,0.00,,---,0.00,VWS V13.01,2013-04-14 16:39:00,
2013-04-14 09:45:00,60.2,39.9,21.64,NNW,348,3.0,10.0,47,0.00,,---,0.00,VWS V13.01,2013-04-14 16:45:00,
2013-04-14 09:50:00,60.5,40.2,21.64,NNW,339,6.0,10.0,47,0.00,,---,0.00,VWS V13.01,2013-04-14 16:50:00,
2013-04-14 09:55:00,60.8,39.9,21.64,NNW,335,5.0,10.0,46,0.00,,---,0.00,VWS V13.01,2013-04-14 16:55:00,
2013-04-14 10:00:00,61.0,40.1,21.63,North,356,3.0,3.0,46,0.00,,---,0.00,VWS V13.01,2013-04-14 17:00:00,
2013-04-14 10:05:00,61.3,40.4,21.63,NNW,341,5.0,10.0,46,0.00,,---,0.00,VWS V13.01,2013-04-14 17:05:00,
2013-04-14 10:10:00,61.6,39.5,21.64,NNW,332,7.0,10.0,44,0.00,,---,0.00,VWS V13.01,2013-04-14 17:10:00,
2013-04-14 10:15:00,61.7,39.6,21.64,NNW,341,6.0,10.0,44,0.00,,---,0.00,VWS V13.01,2013-04-14 17:15:00,
2013-04-14 10:20:00,61.9,39.8,21.64,NNW,346,5.0,12.0,44,0.00,,---,0.00,VWS V13.01,2013-04-14 17:20:00,
2013-04-14 10:25:00,62.1,40.0,21.64,NNW,336,4.0,12.0,44,0.00,,---,0.00,VWS V13.01,2013-04-14 17:25:00,
2013-04-14 10:31:00,62.3,41.3,21.63,NNW,337,4.0,4.0,46,0.00,,---,0.00,VWS V13.01,2013-04-14 17:31:00,
2013-04-14 10:36:00,62.8,40.6,21.64,NNW,337,7.0,8.0,44,0.00,,---,0.00,VWS V13.01,2013-04-14 17:36:00,
2013-04-14 10:41:00,63.1,40.9,21.64,NNW,330,6.0,10.0,44,0.00,,---,0.00,VWS V13.01,2013-04-14 17:41:00,
2013-04-14 10:46:00,63.3,41.0,21.64,NNW,335,4.0,10.0,44,0.00,,---,0.00,VWS V13.01,2013-04-14 17:46:00,
2013-04-14 10:53:00,63.8,39.7,21.64,NNW,339,5.0,11.0,41,0.00,,---,0.00,VWS V13.01,2013-04-14 17:53:00,
2013-04-14 10:58:00,64.2,40.0,21.63,NNW,332,4.0,12.0,41,0.00,,---,0.00,VWS V13.01,2013-04-14 17:58:00,
2013-04-14 11:03:00,64.3,40.7,21.64,NNW,327,2.0,8.0,42,0.00,,---,0.00,VWS V13.01,2013-04-14 18:03:00,
2013-04-14 11:09:00,64.7,40.5,21.63,WNW,291,3.0,8.0,41,0.00,,---,0.00,VWS V13.01,2013-04-14 18:09:00,
2013-04-14 11:14:00,65.1,40.2,21.63,NNW,332,2.0,11.0,40,0.00,,---,0.00,VWS V13.01,2013-04-14 18:14:00,
2013-04-14 11:19:00,65.4,38.5,21.63,NNW,343,8.0,11.0,37,0.00,,---,0.00,VWS V13.01,2013-04-14 18:19:00,
2013-04-14 11:24:00,65.7,40.1,21.62,NNW,335,3.0,11.0,39,0.00,,---,0.00,VWS V13.01,2013-04-14 18:24:00,
2013-04-14 11:29:00,66.2,39.2,21.62,NNW,335,3.0,11.0,37,0.00,,---,0.00,VWS V13.01,2013-04-14 18:29:00,
2013-04-14 11:34:00,66.8,40.4,21.62,North,351,6.0,7.0,38,0.00,,---,0.00,VWS V13.01,2013-04-14 18:34:00,
2013-04-14 11:39:00,67.1,38.6,21.62,NNW,332,4.0,12.0,35,0.00,,---,0.00,VWS V13.01,2013-04-14 18:39:00,
2013-04-14 11:44:00,67.1,38.6,21.62,NNW,344,4.0,12.0,35,0.00,,---,0.00,VWS V13.01,2013-04-14 18:44:00,
2013-04-14 11:49:00,67.3,37.2,21.62,NNW,346,4.0,12.0,33,0.00,,---,0.00,VWS V13.01,2013-04-14 18:49:00,
2013-04-14 11:54:00,67.8,38.4,21.62,NW,319,4.0,12.0,34,0.00,,---,0.00,VWS V13.01,2013-04-14 18:54:00,
2013-04-14 11:59:00,67.8,37.7,21.61,NNW,347,9.0,13.0,33,0.00,,---,0.00,VWS V13.01,2013-04-14 18:59:00,
2013-04-14 12:05:00,68.2,38.8,21.61,NNW,345,8.0,10.0,34,0.00,,---,0.00,VWS V13.01,2013-04-14 19:05:00,
2013-04-14 12:10:00,68.3,39.6,21.60,West,259,5.0,10.0,35,0.00,,---,0.00,VWS V13.01,2013-04-14 19:10:00,
2013-04-14 12:15:00,68.4,39.0,21.60,NW,317,5.0,10.0,34,0.00,,---,0.00,VWS V13.01,2013-04-14 19:15:00,
2013-04-14 12:20:00,68.5,39.0,21.60,WNW,292,3.0,10.0,34,0.00,,---,0.00,VWS V13.01,2013-04-14 19:20:00,
2013-04-14 12:25:00,68.9,39.4,21.59,NW,326,3.0,10.0,34,0.00,,---,0.00,VWS V13.01,2013-04-14 19:25:00,
2013-04-14 12:30:00,69.1,38.8,21.59,NNW,334,4.0,10.0,33,0.00,,---,0.00,VWS V13.01,2013-04-14 19:30:00,
2013-04-14 12:35:00,69.0,38.7,21.58,NNW,332,2.0,8.0,33,0.00,,---,0.00,VWS V13.01,2013-04-14 19:35:00,
2013-04-14 12:40:00,69.5,39.2,21.58,NNW,331,6.0,9.0,33,0.00,,---,0.00,VWS V13.01,2013-04-14 19:40:00,
2013-04-14 12:45:00,69.8,39.4,21.58,NW,326,2.0,9.0,33,0.00,,---,0.00,VWS V13.01,2013-04-14 19:45:00,
2013-04-14 12:51:00,70.1,38.1,21.58,West,277,2.0,9.0,31,0.00,,---,0.00,VWS V13.01,2013-04-14 19:51:00,
2013-04-14 12:56:00,70.3,37.4,21.58,West,273,4.0,10.0,30,0.00,,---,0.00,VWS V13.01,2013-04-14 19:56:00,
2013-04-14 13:01:00,70.7,36.0,21.57,North,349,2.0,8.0,28,0.00,,---,0.00,VWS V13.01,2013-04-14 20:01:00,
2013-04-14 13:06:00,71.3,38.3,21.57,West,259,4.0,9.0,30,0.00,,---,0.00,VWS V13.01,2013-04-14 20:06:00,
2013-04-14 13:11:00,71.6,35.9,21.56,NW,317,2.0,9.0,27,0.00,,---,0.00,VWS V13.01,2013-04-14 20:11:00,
2013-04-14 13:17:00,71.9,37.1,21.56,WNW,294,2.0,9.0,28,0.00,,---,0.00,VWS V13.01,2013-04-14 20:17:00,
2013-04-14 13:22:00,72.4,37.5,21.56,West,265,4.0,9.0,28,0.00,,---,0.00,VWS V13.01,2013-04-14 20:22:00,
2013-04-14 13:27:00,72.4,36.6,21.56,NNW,346,5.0,10.0,27,0.00,,---,0.00,VWS V13.01,2013-04-14 20:27:00,
2013-04-14 13:32:00,72.3,36.5,21.55,NW,316,2.0,5.0,27,0.00,,---,0.00,VWS V13.01,2013-04-14 20:32:00,
2013-04-14 13:37:00,72.8,36.0,21.55,NW,326,3.0,5.0,26,0.00,,---,0.00,VWS V13.01,2013-04-14 20:37:00,
2013-04-14 13:42:00,73.5,39.3,21.55,SW,231,5.0,9.0,29,0.00,,---,0.00,VWS V13.01,2013-04-14 20:42:00,
2013-04-14 13:47:00,74.0,37.9,21.55,NW,311,6.0,9.0,27,0.00,,---,0.00,VWS V13.01,2013-04-14 20:47:00,
2013-04-14 13:52:00,74.2,39.9,21.55,WNW,293,4.0,9.0,29,0.00,,---,0.00,VWS V13.01,2013-04-14 20:52:00,
2013-04-14 13:58:00,74.7,39.5,21.55,West,259,4.0,9.0,28,0.00,,---,0.00,VWS V13.01,2013-04-14 20:58:00,
2013-04-14 14:03:00,75.0,39.7,21.54,West,281,4.0,8.0,28,0.00,,---,0.00,VWS V13.01,2013-04-14 21:03:00,
2013-04-14 14:08:00,75.1,39.8,21.53,SW,215,6.0,12.0,28,0.00,,---,0.00,VWS V13.01,2013-04-14 21:08:00,
2013-04-14 14:13:00,75.2,39.9,21.54,SW,233,1.0,12.0,28,0.00,,---,0.00,VWS V13.01,2013-04-14 21:13:00,
2013-04-14 14:18:00,75.6,42.9,21.53,SE,126,0.0,12.0,31,0.00,,---,0.00,VWS V13.01,2013-04-14 21:18:00,
2013-04-14 14:23:00,75.5,39.2,21.53,West,269,3.0,12.0,27,0.00,,---,0.00,VWS V13.01,2013-04-14 21:23:00,
2013-04-14 14:28:00,75.6,43.7,21.53,West,265,5.0,12.0,32,0.00,,---,0.00,VWS V13.01,2013-04-14 21:28:00,
2013-04-14 14:33:00,75.6,42.0,21.53,WNW,302,5.0,9.0,30,0.00,,---,0.00,VWS V13.01,2013-04-14 21:33:00,
2013-04-14 14:38:00,75.7,44.6,21.53,SW,216,6.0,9.0,33,0.00,,---,0.00,VWS V13.01,2013-04-14 21:38:00,
2013-04-14 14:43:00,75.8,44.7,21.53,WSW,254,3.0,9.0,33,0.00,,---,0.00,VWS V13.01,2013-04-14 21:43:00,
2013-04-14 14:48:00,75.6,43.7,21.53,West,273,4.0,9.0,32,0.00,,---,0.00,VWS V13.01,2013-04-14 21:48:00,
2013-04-14 14:54:00,75.7,44.6,21.53,South,181,4.0,9.0,33,0.00,,---,0.00,VWS V13.01,2013-04-14 21:54:00,
2013-04-14 14:59:00,76.0,44.8,21.51,South,175,4.0,9.0,33,0.00,,---,0.00,VWS V13.01,2013-04-14 21:59:00,
2013-04-14 15:04:00,76.2,45.0,21.51,SSW,200,5.0,7.0,33,0.00,,---,0.00,VWS V13.01,2013-04-14 22:04:00,
2013-04-14 15:09:00,76.3,45.1,21.51,SE,137,5.0,7.0,33,0.00,,---,0.00,VWS V13.01,2013-04-14 22:09:00,
2013-04-14 15:15:00,76.2,45.0,21.50,South,178,3.0,7.0,33,0.00,,---,0.00,VWS V13.01,2013-04-14 22:15:00,
2013-04-14 15:20:00,76.3,45.1,21.50,SW,229,6.0,8.0,33,0.00,,---,0.00,VWS V13.01,2013-04-14 22:20:00,
2013-04-14 15:25:00,76.2,45.8,21.49,SW,216,0.0,8.0,34,0.00,,---,0.00,VWS V13.01,2013-04-14 22:25:00,
2013-04-14 15:30:00,75.9,44.8,21.49,SSW,213,3.0,4.0,33,0.00,,---,0.00,VWS V13.01,2013-04-14 22:30:00,
2013-04-14 15:35:00,75.7,45.4,21.49,SE,133,3.0,9.0,34,0.00,,---,0.00,VWS V13.01,2013-04-14 22:35:00,
2013-04-14 15:40:00,75.6,46.0,21.48,SSE,156,4.0,9.0,35,0.00,,---,0.00,VWS V13.01,2013-04-14 22:40:00,
2013-04-14 15:46:00,75.4,45.1,21.48,SW,221,5.0,9.0,34,0.00,,---,0.00,VWS V13.01,2013-04-14 22:46:00,
2013-04-14 15:51:00,75.2,45.7,21.47,WSW,247,4.0,9.0,35,0.00,,---,0.00,VWS V13.01,2013-04-14 22:51:00,
2013-04-14 15:56:00,75.0,45.5,21.47,SW,224,6.0,9.0,35,0.00,,---,0.00,VWS V13.01,2013-04-14 22:56:00,
2013-04-14 16:01:00,74.9,46.2,21.46,SE,144,2.0,9.0,36,0.00,,---,0.00,VWS V13.01,2013-04-14 23:01:00,
2013-04-14 16:06:00,75.1,46.3,21.46,South,183,3.0,9.0,36,0.00,,---,0.00,VWS V13.01,2013-04-14 23:06:00,
2013-04-14 16:11:00,75.2,47.9,21.45,SE,138,5.0,9.0,38,0.00,,---,0.00,VWS V13.01,2013-04-14 23:11:00,
2013-04-14 16:16:00,75.2,47.2,21.44,SW,221,3.0,11.0,37,0.00,,---,0.00,VWS V13.01,2013-04-14 23:16:00,
2013-04-14 16:21:00,75.3,47.3,21.44,WSW,244,8.0,11.0,37,0.00,,---,0.00,VWS V13.01,2013-04-14 23:21:00,
2013-04-14 16:26:00,75.1,47.8,21.44,WSW,239,7.0,11.0,38,0.00,,---,0.00,VWS V13.01,2013-04-14 23:26:00,
2013-04-14 16:31:00,74.8,48.9,21.44,SW,220,9.0,9.0,40,0.00,,---,0.00,VWS V13.01,2013-04-14 23:31:00,
2013-04-14 16:36:00,74.6,48.7,21.43,SW,224,4.0,10.0,40,0.00,,---,0.00,VWS V13.01,2013-04-14 23:36:00,
2013-04-14 16:41:00,74.6,49.4,21.43,WSW,239,6.0,10.0,41,0.00,,---,0.00,VWS V13.01,2013-04-14 23:41:00,
2013-04-14 16:47:00,74.6,49.4,21.42,SW,228,6.0,12.0,41,0.00,,---,0.00,VWS V13.01,2013-04-14 23:47:00,
2013-04-14 16:52:00,74.5,49.9,21.42,SW,233,5.0,12.0,42,0.00,,---,0.00,VWS V13.01,2013-04-14 23:52:00,
2013-04-14 16:57:00,74.3,49.8,21.42,SW,229,9.0,13.0,42,0.00,,---,0.00,VWS V13.01,2013-04-14 23:57:00,
2013-04-14 17:02:00,74.3,50.4,21.42,SW,216,8.0,8.0,43,0.00,,---,0.00,VWS V13.01,2013-04-15 00:02:00,
2013-04-14 17:07:00,74.3,51.0,21.42,SW,235,3.0,9.0,44,0.00,,---,0.00,VWS V13.01,2013-04-15 00:07:00,
2013-04-14 17:12:00,74.2,50.9,21.41,South,174,2.0,10.0,44,0.00,,---,0.00,VWS V13.01,2013-04-15 00:12:00,
2013-04-14 17:17:00,74.1,50.8,21.40,WSW,241,4.0,10.0,44,0.00,,---,0.00,VWS V13.01,2013-04-15 00:17:00,
2013-04-14 17:22:00,73.9,51.8,21.41,SSW,201,7.0,10.0,46,0.00,,---,0.00,VWS V13.01,2013-04-15 00:22:00,
2013-04-14 17:27:00,73.9,51.8,21.41,SSW,207,8.0,11.0,46,0.00,,---,0.00,VWS V13.01,2013-04-15 00:27:00,
2013-04-14 17:32:00,73.7,51.7,21.40,South,175,4.0,8.0,46,0.00,,---,0.00,VWS V13.01,2013-04-15 00:32:00,
2013-04-14 17:37:00,73.6,51.6,21.40,WSW,240,4.0,8.0,46,0.00,,---,0.00,VWS V13.01,2013-04-15 00:37:00,
2013-04-14 17:43:00,73.5,52.1,21.40,SSW,205,6.0,10.0,47,0.00,,---,0.00,VWS V13.01,2013-04-15 00:43:00,
2013-04-14 17:48:00,73.5,52.6,21.39,SSW,213,3.0,11.0,48,0.00,,---,0.00,VWS V13.01,2013-04-15 00:48:00,
2013-04-14 17:53:00,73.4,53.1,21.39,SW,225,7.0,15.0,49,0.00,,---,0.00,VWS V13.01,2013-04-15 00:53:00,
2013-04-14 17:58:00,73.2,52.4,21.39,SW,223,7.0,15.0,48,0.00,,---,0.00,VWS V13.01,2013-04-15 00:58:00,
2013-04-14 18:03:00,73.1,52.3,21.39,SW,228,6.0,16.0,48,0.00,,---,0.00,VWS V13.01,2013-04-15 01:03:00,
2013-04-14 18:08:00,73.1,52.3,21.38,West,269,6.0,16.0,48,0.00,,---,0.00,VWS V13.01,2013-04-15 01:08:00,
2013-04-14 18:13:00,73.1,50.5,21.39,West,268,11.0,16.0,45,0.00,,---,0.00,VWS V13.01,2013-04-15 01:13:00,
2013-04-14 18:19:00,73.1,50.5,21.39,West,277,6.0,16.0,45,0.00,,---,0.00,VWS V13.01,2013-04-15 01:19:00,
2013-04-14 18:24:00,73.0,51.0,21.39,West,268,7.0,16.0,46,0.00,,---,0.00,VWS V13.01,2013-04-15 01:24:00,
2013-04-14 18:29:00,72.7,49.5,21.39,West,278,4.0,16.0,44,0.00,,---,0.00,VWS V13.01,2013-04-15 01:29:00,
2013-04-14 18:34:00,72.3,49.2,21.39,NW,315,8.0,13.0,44,0.00,,---,0.00,VWS V13.01,2013-04-15 01:34:00,
2013-04-14 18:39:00,72.0,50.1,21.39,West,277,5.0,14.0,46,0.00,,---,0.00,VWS V13.01,2013-04-15 01:39:00,
2013-04-14 18:44:00,71.6,49.2,21.39,WSW,244,11.0,16.0,45,0.00,,---,0.00,VWS V13.01,2013-04-15 01:44:00,
2013-04-14 18:49:00,71.2,48.8,21.39,WNW,303,5.0,18.0,45,0.00,,---,0.00,VWS V13.01,2013-04-15 01:49:00,
2013-04-14 18:54:00,70.9,49.1,21.39,NNW,340,4.0,18.0,46,0.00,,---,0.00,VWS V13.01,2013-04-15 01:54:00,
2013-04-14 18:59:00,70.4,50.3,21.39,West,275,7.0,18.0,49,0.00,,---,0.00,VWS V13.01,2013-04-15 01:59:00,
2013-04-14 19:04:00,69.6,50.7,21.39,West,260,6.0,16.0,51,0.00,,---,0.00,VWS V13.01,2013-04-15 02:04:00,
2013-04-14 19:09:00,68.8,50.5,21.39,WNW,295,7.0,16.0,52,0.00,,---,0.00,VWS V13.01,2013-04-15 02:09:00,
2013-04-14 19:14:00,67.8,50.6,21.39,WNW,292,5.0,16.0,54,0.00,,---,0.00,VWS V13.01,2013-04-15 02:14:00,
2013-04-14 19:19:00,67.3,50.6,21.39,West,265,12.0,16.0,55,0.00,,---,0.00,VWS V13.01,2013-04-15 02:19:00,
2013-04-14 19:24:00,66.9,50.2,21.39,West,265,5.0,16.0,55,0.00,,---,0.00,VWS V13.01,2013-04-15 02:24:00,
2013-04-14 19:29:00,66.6,50.0,21.39,West,276,13.0,16.0,55,0.00,,---,0.00,VWS V13.01,2013-04-15 02:29:00,
2013-04-14 19:34:00,66.2,50.1,21.39,West,280,4.0,13.0,56,0.00,,---,0.00,VWS V13.01,2013-04-15 02:34:00,
2013-04-14 19:39:00,65.6,50.0,21.39,WSW,253,6.0,13.0,57,0.00,,---,0.00,VWS V13.01,2013-04-15 02:39:00,
2013-04-14 19:45:00,65.2,49.6,21.39,WNW,295,9.0,16.0,57,0.00,,---,0.00,VWS V13.01,2013-04-15 02:45:00,
2013-04-14 19:50:00,65.3,49.2,21.39,West,275,5.0,16.0,56,0.00,,---,0.00,VWS V13.01,2013-04-15 02:50:00,
2013-04-14 19:55:00,65.3,48.7,21.39,West,275,7.0,16.0,55,0.00,,---,0.00,VWS V13.01,2013-04-15 02:55:00,
2013-04-14 20:01:00,65.2,48.6,21.39,NW,314,8.0,10.0,55,0.00,,---,0.00,VWS V13.01,2013-04-15 03:01:00,
2013-04-14 20:06:00,65.0,48.5,21.39,WNW,285,6.0,13.0,55,0.00,,---,0.00,VWS V13.01,2013-04-15 03:06:00,
2013-04-14 20:11:00,64.8,48.3,21.39,WNW,303,7.0,15.0,55,0.00,,---,0.00,VWS V13.01,2013-04-15 03:11:00,
2013-04-14 20:16:00,64.7,48.7,21.40,NNW,332,7.0,15.0,56,0.00,,---,0.00,VWS V13.01,2013-04-15 03:16:00,
2013-04-14 20:21:00,64.5,48.5,21.41,SW,214,5.0,15.0,56,0.00,,---,0.00,VWS V13.01,2013-04-15 03:21:00,
2013-04-14 20:26:00,63.4,48.8,21.41,SSW,201,2.0,15.0,59,0.00,,---,0.00,VWS V13.01,2013-04-15 03:26:00,
2013-04-14 20:31:00,62.4,48.8,21.41,SW,233,5.0,9.0,61,0.00,,---,0.00,VWS V13.01,2013-04-15 03:31:00,
2013-04-14 20:36:00,61.6,48.5,21.42,WSW,254,2.0,10.0,62,0.00,,---,0.00,VWS V13.01,2013-04-15 03:36:00,
2013-04-14 20:41:00,61.1,48.4,21.42,SW,222,3.0,10.0,63,0.00,,---,0.00,VWS V13.01,2013-04-15 03:41:00,
2013-04-14 20:46:00,60.9,48.2,21.42,SSW,208,0.0,10.0,63,0.00,,---,0.00,VWS V13.01,2013-04-15 03:46:00,
2013-04-14 20:51:00,60.4,48.2,21.42,SW,220,3.0,10.0,64,0.00,,---,0.00,VWS V13.01,2013-04-15 03:51:00,
2013-04-14 20:56:00,60.0,48.2,21.42,SW,231,4.0,10.0,65,0.00,,---,0.00,VWS V13.01,2013-04-15 03:56:00,
2013-04-14 21:00:00,59.6,48.2,21.42,WSW,240,4.0,10.0,66,0.00,,---,0.00,VWS V13.01,2013-04-15 04:00:00,
2013-04-14 21:05:00,58.8,48.3,21.43,SW,236,4.0,9.0,68,0.00,,---,0.00,VWS V13.01,2013-04-15 04:05:00,
2013-04-14 21:11:00,58.4,47.9,21.43,SSW,213,3.0,9.0,68,0.00,,---,0.00,VWS V13.01,2013-04-15 04:11:00,
2013-04-14 21:12:00,58.3,47.8,21.43,SW,215,2.0,9.0,68,0.00,,---,0.00,VWS V13.01,2013-04-15 04:12:00,
2013-04-14 21:17:00,58.1,47.6,21.44,SSW,209,1.0,9.0,68,0.00,,---,0.00,VWS V13.01,2013-04-15 04:17:00,
2013-04-14 21:20:00,58.0,47.9,21.44,SW,217,3.0,9.0,69,0.00,,---,0.00,VWS V13.01,2013-04-15 04:20:00,
2013-04-14 21:25:00,57.7,48.0,21.44,SW,217,4.0,9.0,70,0.00,,---,0.00,VWS V13.01,2013-04-15 04:25:00,
2013-04-14 21:30:00,57.5,47.8,21.44,SSW,213,2.0,9.0,70,0.00,,---,0.00,VWS V13.01,2013-04-15 04:30:00,
2013-04-14 21:35:00,57.2,47.9,21.45,SW,219,3.0,7.0,71,0.00,,---,0.00,VWS V13.01,2013-04-15 04:35:00,
2013-04-14 21:40:00,57.0,47.7,21.45,WSW,240,4.0,7.0,71,0.00,,---,0.00,VWS V13.01,2013-04-15 04:40:00,
2013-04-14 21:45:00,56.9,47.6,21.45,SW,225,4.0,7.0,71,0.00,,---,0.00,VWS V13.01,2013-04-15 04:45:00,
2013-04-14 21:50:00,56.7,47.4,21.45,SW,214,4.0,7.0,71,0.00,,---,0.00,VWS V13.01,2013-04-15 04:50:00,
2013-04-14 21:55:00,56.4,47.5,21.46,SSW,213,3.0,9.0,72,0.00,,---,0.00,VWS V13.01,2013-04-15 04:55:00,
2013-04-14 22:00:00,56.1,47.2,21.46,SSW,213,6.0,6.0,72,0.00,,---,0.00,VWS V13.01,2013-04-15 05:00:00,
2013-04-14 22:05:00,55.8,46.9,21.46,SW,235,6.0,8.0,72,0.00,,---,0.00,VWS V13.01,2013-04-15 05:05:00,
2013-04-14 22:10:00,55.5,47.0,21.47,SW,229,3.0,10.0,73,0.00,,---,0.00,VWS V13.01,2013-04-15 05:10:00,
2013-04-14 22:15:00,55.2,47.1,21.47,WSW,240,6.0,10.0,74,0.00,,---,0.00,VWS V13.01,2013-04-15 05:15:00,
2013-04-14 22:21:00,55.0,46.9,21.47,SW,220,6.0,10.0,74,0.00,,---,0.00,VWS V13.01,2013-04-15 05:21:00,
2013-04-14 22:26:00,54.8,47.0,21.47,SW,226,1.0,10.0,75,0.00,,---,0.00,VWS V13.01,2013-04-15 05:26:00,
2013-04-14 22:31:00,54.7,46.9,21.47,SW,218,2.0,4.0,75,0.00,,---,0.00,VWS V13.01,2013-04-15 05:31:00,
2013-04-14 22:36:00,54.6,47.2,21.48,SW,223,4.0,6.0,76,0.00,,---,0.00,VWS V13.01,2013-04-15 05:36:00,
2013-04-14 22:41:00,54.4,47.0,21.48,SW,217,3.0,6.0,76,0.00,,---,0.00,VWS V13.01,2013-04-15 05:41:00,
2013-04-14 22:46:00,54.2,47.2,21.48,SW,218,4.0,6.0,77,0.00,,---,0.00,VWS V13.01,2013-04-15 05:46:00,
2013-04-14 22:51:00,54.2,47.2,21.49,SW,222,2.0,7.0,77,0.00,,---,0.00,VWS V13.01,2013-04-15 05:51:00,
2013-04-14 22:56:00,54.0,47.0,21.48,SW,223,2.0,7.0,77,0.00,,---,0.00,VWS V13.01,2013-04-15 05:56:00,
2013-04-14 23:01:00,53.9,46.9,21.49,SW,221,4.0,4.0,77,0.00,,---,0.00,VWS V13.01,2013-04-15 06:01:00,
2013-04-14 23:06:00,53.7,46.7,21.49,SW,221,2.0,5.0,77,0.00,,---,0.00,VWS V13.01,2013-04-15 06:06:00,
2013-04-14 23:11:00,53.7,46.7,21.49,SW,221,1.0,5.0,77,0.00,,---,0.00,VWS V13.01,2013-04-15 06:11:00,
2013-04-14 23:16:00,53.5,46.8,21.49,SW,220,4.0,5.0,78,0.00,,---,0.00,VWS V13.01,2013-04-15 06:16:00,
2013-04-14 23:21:00,53.4,47.1,21.50,SSW,213,0.0,5.0,79,0.00,,---,0.00,VWS V13.01,2013-04-15 06:21:00,
2013-04-14 23:27:00,53.3,47.0,21.50,SW,217,0.0,5.0,79,0.00,,---,0.00,VWS V13.01,2013-04-15 06:27:00,
2013-04-14 23:32:00,53.3,47.0,21.50,SW,217,3.0,5.0,79,0.00,,---,0.00,VWS V13.01,2013-04-15 06:32:00,
2013-04-14 23:37:00,53.3,47.3,21.50,SW,217,1.0,5.0,80,0.00,,---,0.00,VWS V13.01,2013-04-15 06:37:00,
2013-04-14 23:42:00,53.4,47.4,21.50,SW,217,1.0,5.0,80,0.00,,---,0.00,VWS V13.01,2013-04-15 06:42:00,
2013-04-14 23:47:00,53.4,47.4,21.50,SW,216,3.0,6.0,80,0.00,,---,0.00,VWS V13.01,2013-04-15 06:47:00,
2013-04-14 23:52:00,53.4,47.4,21.50,SW,218,1.0,6.0,80,0.00,,---,0.00,VWS V13.01,2013-04-15 06:52:00,
2013-04-14 23:57:00,53.5,47.5,21.50,SW,220,2.0,6.0,80,0.00,,---,0.00,VWS V13.01,2013-04-15 06:57:00,